Theta_e
311 311 312 312 312 313 318 322 324 322 323 324 326 329 335 336 338 337 337 336 336 336 339 340 341 341 339 339 341 340 342 341 339
310 310 310 310 309 309 313 318 321 325 323 322 324 324 325 333 337 339 339 339 337 339 339 340 341 341 341 339 340 341 341 341 340
308 308 309 308 307 307 309 313 315 319 323 324 322 323 323 327 333 335 338 338 337 339 339 339 341 340 339 340 339 339 340 340 340
305 305 304 304 305 304 307 310 312 315 317 322 322 319 319 322 327 329 332 334 334 336 338 338 339 340 337 338 339 338 338 338 339
300 300 301 301 302 304 306 308 308 311 314 317 317 317 315 314 313 317 328 328 332 334 336 338 338 339 339 339 340 339 337 336 337
299 299 301 303 304 305 306 307 307 307 308 311 312 313 316 312 311 311 311 317 323 326 330 332 337 339 339 339 340 339 336 336 335
299 299 300 301 302 303 304 305 305 304 304 304 306 312 313 312 310 309 307 309 315 323 325 330 334 338 339 339 340 340 338 336 335
299 299 299 300 300 300 300 300 300 300 300 301 303 308 311 311 310 308 306 307 313 317 323 324 329 333 336 338 340 340 340 338 335
299 299 299 299 299 300 300 300 300 300 300 300 301 303 306 308 308 308 306 305 310 314 318 321 324 325 329 334 336 339 339 338 338
297 298 299 299 299 300 300 300 300 300 300 300 300 301 303 306 307 307 306 305 307 307 315 317 317 319 320 327 333 335 336 336 338
298 297 297 298 299 299 300 300 300 300 300 300 300 300 302 304 306 306 308 305 304 306 310 311 313 315 317 316 317 322 331 334 336
298 298 298 297 297 298 299 300 300 300 300 300 300 300 301 303 305 306 306 307 305 304 306 305 308 310 312 313 314 315 312 327 330
298 298 298 298 297 297 297 299 300 300 300 300 300 300 300 302 304 305 306 306 306 306 304 303 306 308 308 309 310 314 317 314 325
298 298 298 298 298 297 297 297 298 300 300 300 300 300 300 301 302 305 306 306 306 306 305 303 303 303 306 307 309 312 316 318 318
298 298 297 297 298 298 297 297 297 298 299 300 300 300 300 300 302 303 305 305 306 305 305 305 304 302 303 305 308 310 315 319 322
297 297 297 297 297 298 298 298 297 297 298 299 300 300 301 300 300 302 304 305 305 305 305 304 303 303 301 304 307 309 315 321 322
296 296 296 296 297 298 298 298 298 297 297 297 299 302 302 301 300 300 301 304 304 304 304 303 302 302 303 303 307 308 315 316 320
295 296 297 298 297 297 298 298 298 298 298 297 298 301 303 303 302 300 300 302 303 304 303 302 302 302 302 303 304 303 306 315 319
294 295 296 297 297 297 297 298 298 297 298 297 297 297 299 302 303 301 300 301 303 303 303 302 302 301 301 302 303 304 306 312 316
294 294 296 297 297 297 297 298 298 298 297 297 297 297 298 298 300 302 302 301 302 303 302 302 301 301 301 302 303 305 311 310 311
Wind_Speed
21 20 18 18 18 18 17 15 14 13 12 11 10 12 10 10 16 17 16 17 13 14 13 14 13 16 12 11 10 13 13 12 10
23 22 21 19 19 19 18 16 15 12 13 13 11 11 12 12 10 15 17 17 17 16 15 15 14 17 16 14 14 14 14 13 11
22 22 20 20 20 20 18 18 17 15 13 13 14 9 9 11 13 11 13 15 18 17 17 18 17 18 19 17 16 17 17 15 15
22 22 23 24 23 22 20 18 17 17 16 14 11 10 11 8 11 13 12 9 14 15 19 19 18 19 19 20 18 18 18 18 17
21 22 23 23 25 24 21 20 18 18 16 15 13 9 11 11 10 10 15 16 15 11 15 18 20 21 21 20 21 20 20 19 18
22 21 22 22 22 22 22 21 19 19 19 19 16 12 12 12 11 10 10 14 13 9 13 14 19 20 21 21 23 22 22 21 19
21 22 21 21 21 21 21 20 21 20 19 16 16 16 15 15 13 11 10 8 11 12 8 10 13 18 21 22 24 24 24 24 23
18 18 17 16 16 19 18 19 18 17 18 16 17 17 17 16 15 13 12 8 7 7 11 6 7 10 14 21 23 25 25 26 26
19 18 18 17 16 16 17 17 17 17 18 19 19 19 20 18 16 15 13 11 6 5 4 6 3 6 12 16 18 20 26 26 24
18 19 19 18 18 18 16 16 17 17 18 19 19 19 20 21 19 15 14 13 10 8 3 1 2 4 5 6 15 14 23 19 22
19 18 19 20 18 18 17 16 16 16 17 18 18 19 18 20 20 19 15 14 13 10 7 4 1 2 3 6 7 11 17 20 22
20 19 19 18 18 18 17 18 17 17 17 18 17 18 19 19 21 21 19 15 13 12 10 8 4 3 4 4 7 11 11 21 18
24 22 20 18 17 15 15 17 17 17 17 17 18 18 19 18 20 21 20 18 15 12 11 10 8 6 6 6 7 8 8 12 26
27 25 22 18 17 15 15 15 16 17 18 18 19 19 19 19 20 21 21 19 16 15 13 11 10 9 6 9 9 8 9 9 12
27 26 22 21 18 18 16 14 14 15 16 18 20 20 20 20 21 20 22 21 18 17 15 11 10 11 9 10 11 10 10 9 11
26 23 18 17 20 18 16 15 13 13 13 15 18 21 21 21 22 21 21 22 20 18 16 14 13 13 11 12 13 11 10 12 11
25 23 20 16 18 18 16 15 14 12 11 10 13 9 17 23 24 25 24 25 23 22 20 17 15 13 13 13 15 15 14 13 14
26 21 19 16 15 17 16 16 15 13 10 12 10 5 8 8 18 24 26 25 26 24 21 18 16 14 13 13 16 19 17 13 14
25 24 23 17 17 19 16 17 19 17 12 10 16 21 15 3 6 13 21 25 26 24 23 19 17 15 13 14 16 16 17 16 13
27 27 25 22 19 15 19 20 16 18 13 12 11 13 17 19 8 7 8 21 26 26 25 21 18 15 13 12 13 16 13 14 13
Wind_Direction
300 300 300 306 309 308 307 305 306 297 300 299 301 283 280 277 244 235 234 231 236 230 226 237 242 222 219 216 205 186 184 192 196
295 295 294 294 301 305 301 298 301 308 294 291 292 286 282 260 272 247 235 232 232 237 237 238 239 224 223 223 218 212 209 208 211
292 292 291 290 293 296 294 292 291 292 302 300 282 282 275 258 254 258 251 241 235 235 239 245 247 242 232 227 225 223 222 221 221
287 285 286 286 286 289 284 284 289 284 285 297 304 267 268 262 256 256 246 253 246 251 242 245 249 253 246 232 226 226 226 226 227
287 287 286 283 281 280 278 277 279 284 282 282 289 272 263 261 259 253 245 248 251 256 255 246 247 249 248 240 231 226 228 229 227
291 289 287 284 280 275 272 271 274 279 278 275 272 275 254 245 251 257 252 250 247 266 259 266 255 249 249 247 231 228 228 227 226
294 288 288 284 278 273 270 267 270 273 269 265 263 253 248 251 245 244 254 263 256 251 273 269 276 256 247 243 237 232 227 228 225
303 297 294 288 281 277 270 267 265 261 256 259 256 252 249 247 245 247 251 255 269 264 253 279 277 269 246 241 239 238 235 229 227
309 302 293 291 284 279 272 265 262 261 257 254 256 254 251 248 247 244 246 251 245 259 261 254 281 287 272 243 239 241 242 237 232
312 308 300 289 284 279 274 267 264 260 258 254 251 253 251 246 245 243 240 239 236 224 236 250 345 7 320 266 234 231 233 230 231
308 305 301 295 288 281 276 272 267 262 258 255 249 252 252 248 242 239 236 227 227 225 212 219 295 337 338 336 311 278 245 225 217
308 301 293 290 290 288 280 272 264 263 261 256 252 251 251 250 244 238 236 230 226 223 226 228 237 256 289 299 313 309 317 247 236
305 300 297 287 283 285 285 277 271 263 259 256 252 251 247 246 243 235 234 233 233 230 230 232 230 233 260 282 292 284 285 299 245
306 302 293 291 280 273 276 277 275 269 259 257 254 252 248 244 244 236 231 232 233 235 232 228 230 245 258 266 263 276 254 265 285
307 304 299 290 281 269 261 268 273 275 271 263 258 252 247 242 241 239 233 231 231 231 234 234 246 253 251 258 260 247 243 240 244
324 315 304 296 280 277 262 259 262 268 269 273 258 249 246 241 238 236 236 234 231 229 227 235 249 252 256 246 241 242 234 218 220
325 321 314 301 295 281 270 250 245 252 255 265 269 253 235 236 238 234 234 233 230 231 232 236 241 249 255 250 231 229 218 213 213
328 321 313 301 297 290 278 262 238 237 246 242 249 249 248 251 229 232 230 229 228 230 231 236 238 247 252 248 235 225 225 208 198
336 333 323 304 301 296 289 276 249 225 234 246 245 253 268 282 242 220 232 229 226 224 230 231 236 242 245 245 229 229 218 208 187
338 339 336 319 305 303 305 274 239 219 223 235 245 250 247 255 264 279 217 230 225 223 225 227 235 234 234 233 227 223 220 199 186